Probability
45 45 45 45 39 35 32 26 26 23 16 16 19 10 13 13 6 16 23 39 45 42 42 42 45 45 48 52 52 52 48 58 58 58 65 68 68 65 61 65 61 61 61
52 45 42 42 45 39 35 29 26 23 23 23 19 16 16 13 13 10 16 32 42 42 42 42 39 39 42 48 48 48 45 48 55 55 55 58 58 58 55 58 58 58 55
42 45 48 39 39 39 35 32 23 26 23 16 16 16 16 19 10 13 13 13 13 35 39 39 39 35 39 35 35 39 35 42 39 39 42 42 39 52 55 52 48 48 45
42 45 42 35 35 32 29 23 23 19 19 13 16 13 16 19 10 16 13 13 16 10 26 32 32 32 32 32 29 29 29 32 32 35 35 39 39 39 48 42 32 39 45
35 32 35 35 29 23 23 19 23 19 16 16 13 13 6 13 16 13 13 13 13 13 13 19 32 32 26 26 26 29 29 29 29 29 29 32 35 35 26 32 29 29 35
32 29 32 32 26 26 23 16 19 19 19 16 10 10 13 16 16 16 16 13 13 16 6 6 10 13 26 26 23 26 26 26 32 29 29 29 29 29 23 23 19 19 23
26 35 26 29 29 19 16 13 13 13 16 16 10 10 13 13 16 13 13 6 3 3 3 6 6 0 3 13 19 26 26 26 29 29 23 29 32 32 19 19 16 16 16
16 16 35 26 29 16 13 13 13 16 13 16 13 13 10 13 10 6 10 10 3 3 0 0 0 0 6 3 3 13 19 19 19 23 23 26 23 23 16 13 10 10 6
19 23 19 23 19 13 13 13 13 13 13 10 13 6 6 6 10 10 10 3 3 3 3 3 0 0 6 6 3 3 10 10 16 19 16 19 16 16 13 13 10 10 6
19 19 16 16 19 13 13 13 13 13 13 10 10 13 10 10 6 3 3 3 3 3 3 3 3 3 3 3 3 0 0 0 3 10 16 13 10 6 6 6 13 13 10
16 13 13 19 19 19 16 16 13 13 6 10 10 10 10 10 6 3 3 3 3 3 3 3 3 6 10 0 10 3 0 0 0 0 6 13 10 6 6 6 6 6 10
19 13 16 16 19 16 16 16 13 10 13 10 10 10 10 6 3 3 3 3 3 3 3 3 6 6 6 3 0 0 0 0 0 0 0 0 6 3 3 3 6 6 6
23 19 10 19 16 16 13 10 13 10 13 3 3 6 6 3 3 3 3 3 3 3 3 3 3 3 3 3 3 0 0 0 0 0 0 0 0 3 3 3 3 6 10
23 16 13 19 10 10 6 13 10 10 3 6 6 6 6 3 3 3 3 3 3 3 3 3 3 3 3 3 0 0 0 0 0 0 0 0 0 0 0 0 0 0 0
13 10 13 13 6 6 0 0 6 3 3 10 6 6 3 3 3 3 3 3 3 3 3 3 0 3 0 0 0 0 0 0 0 0 0 0 0 0 0 0 0 0 0
13 13 6 10 3 0 3 3 6 3 10 10 6 6 0 0 3 3 3 3 3 3 3 3 0 0 0 0 0 0 0 0 0 0 0 0 0 0 0 0 0 0 0
13 10 10 6 0 0 3 3 3 3 6 6 6 0 0 3 0 3 0 0 0 0 0 3 3 0 0 0 0 0 0 0 0 0 0 0 0 0 0 0 0 0 0
6 6 6 0 0 0 0 6 3 6 6 6 3 0 0 0 0 0 0 0 0 0 0 3 0 0 0 0 0 0 0 0 0 0 0 0 0 0 0 0 0 0 0
6 10 10 10 3 0 0 0 6 3 3 6 3 0 0 0 0 0 0 0 0 0 3 0 0 0 0 0 0 0 0 0 0 0 0 0 0 0 0 0 0 0 0
6 6 6 6 6 6 3 3 3 3 6 10 6 3 3 0 0 0 0 3 3 3 0 0 0 0 0 0 0 0 0 0 0 0 0 0 0 0 0 0 0 0 0
0 3 0 6 10 6 3 3 3 0 0 0 0 3 3 3 3 3 0 0 3 0 0 0 0 0 0 0 0 0 0 0 0 0 0 0 0 0 0 0 0 0 0
6 0 3 0 3 0 0 0 0 0 0 0 3 3 0 3 3 0 0 0 3 3 3 0 0 0 0 0 0 0 0 0 0 0 0 0 0 0 0 0 0 0 0
6 6 3 0 0 0 0 0 0 0 0 0 3 3 0 0 0 3 0 0 0 0 3 0 0 0 0 0 0 0 0 0 0 0 0 0 0 0 0 0 0 0 0
3 3 0 0 0 0 0 0 0 0 0 3 3 0 0 0 0 0 3 0 0 0 0 0 0 0 0 0 0 0 0 0 0 0 0 0 0 0 0 0 0 0 0
3 0 0 0 3 0 0 0 0 0 3 3 0 0 0 0 0 0 0 0 0 0 0 0 0 0 0 0 0 0 0 0 0 0 0 0 0 0 3 0 0 0 0
0 0 0 0 3 0 0 0 0 0 0 0 0 0 0 0 0 0 0 0 0 0 0 0 0 0 0 0 0 0 0 0 0 0 0 0 0 0 0 0 0 0 0
Height
5824 5823 5821 5820 5819 5818 5817 5816 5815 5815 5814 5814 5814 5813 5813 5813 5813 5813 5814 5814 5814 5814 5814 5815 5815 5815 5816 5816 5816 5817 5818 5819 5820 5821 5822 5824 5826 5828 5830 5832 5834 5836 5839
5818 5816 5815 5814 5813 5812 5810 5810 5809 5808 5808 5808 5807 5807 5807 5807 5807 5807 5808 5808 5808 5808 5808 5809 5809 5809 5810 5810 5811 5811 5812 5813 5813 5815 5816 5818 5820 5822 5824 5826 5828 5830 5832
5812 5810 5808 5807 5806 5805 5804 5803 5803 5802 5802 5801 5801 5801 5801 5801 5801 5801 5801 5802 5802 5802 5802 5803 5803 5803 5804 5804 5804 5805 5805 5806 5807 5808 5810 5811 5813 5815 5817 5819 5821 5824 5826
5805 5803 5802 5800 5799 5798 5797 5796 5796 5796 5795 5795 5794 5794 5794 5794 5794 5794 5795 5795 5796 5796 5796 5796 5797 5797 5797 5798 5798 5798 5799 5800 5801 5802 5803 5804 5806 5808 5810 5812 5814 5817 5819
5798 5797 5795 5793 5792 5791 5790 5789 5789 5788 5788 5788 5787 5787 5787 5788 5788 5788 5788 5788 5789 5789 5789 5790 5790 5790 5790 5791 5791 5792 5792 5793 5794 5795 5796 5797 5799 5801 5803 5805 5807 5809 5812
5791 5789 5787 5786 5784 5784 5783 5782 5782 5781 5780 5780 5780 5780 5780 5781 5781 5781 5781 5781 5782 5782 5782 5783 5783 5783 5783 5783 5784 5784 5785 5785 5786 5787 5788 5790 5791 5793 5795 5797 5799 5801 5804
5784 5782 5780 5778 5777 5776 5775 5775 5774 5774 5773 5773 5773 5773 5773 5773 5773 5774 5774 5774 5774 5775 5775 5775 5775 5775 5775 5776 5776 5777 5777 5778 5778 5779 5780 5782 5783 5785 5787 5789 5791 5793 5795
5777 5775 5772 5771 5769 5769 5768 5767 5767 5766 5766 5766 5766 5766 5766 5767 5767 5767 5766 5766 5767 5767 5767 5767 5767 5767 5768 5768 5769 5769 5769 5770 5770 5771 5772 5773 5775 5776 5778 5780 5782 5784 5787
5769 5767 5765 5764 5763 5762 5761 5761 5760 5760 5759 5759 5759 5759 5759 5759 5759 5759 5759 5759 5759 5759 5760 5760 5759 5759 5760 5760 5761 5761 5761 5761 5761 5762 5763 5764 5765 5767 5769 5770 5772 5775 5777
5762 5760 5758 5757 5756 5755 5755 5754 5753 5752 5752 5751 5751 5751 5751 5751 5751 5751 5751 5751 5751 5751 5752 5752 5752 5752 5752 5751 5752 5752 5752 5752 5752 5753 5753 5754 5755 5757 5758 5760 5762 5764 5767
5755 5753 5752 5750 5749 5749 5748 5747 5747 5746 5745 5744 5744 5744 5743 5743 5743 5743 5744 5744 5744 5744 5743 5744 5744 5743 5743 5743 5743 5743 5742 5742 5742 5743 5743 5744 5745 5746 5748 5750 5751 5754 5756
5749 5747 5745 5744 5743 5742 5741 5740 5740 5739 5738 5737 5737 5736 5736 5736 5736 5736 5736 5736 5736 5735 5735 5735 5735 5734 5734 5734 5733 5733 5732 5732 5732 5732 5733 5733 5734 5735 5737 5738 5740 5742 5745
5744 5742 5739 5738 5736 5735 5734 5734 5733 5732 5731 5731 5730 5730 5729 5729 5728 5728 5728 5728 5727 5727 5726 5726 5726 5725 5725 5724 5724 5723 5722 5722 5722 5722 5722 5723 5723 5724 5726 5727 5729 5731 5734
5739 5736 5734 5732 5730 5729 5728 5727 5726 5726 5725 5725 5724 5723 5722 5722 5721 5721 5720 5720 5719 5719 5718 5717 5717 5716 5716 5715 5714 5713 5712 5712 5712 5712 5712 5712 5712 5713 5715 5716 5718 5720 5722
5734 5731 5729 5727 5725 5724 5722 5721 5721 5720 5719 5718 5717 5716 5715 5714 5714 5713 5713 5712 5712 5711 5711 5709 5708 5707 5706 5705 5704 5703 5703 5702 5702 5702 5702 5702 5702 5702 5704 5705 5707 5709 5711
5729 5726 5724 5723 5721 5719 5718 5717 5716 5714 5713 5712 5711 5710 5709 5708 5707 5707 5706 5705 5704 5703 5703 5701 5700 5699 5697 5696 5695 5694 5693 5692 5692 5691 5691 5691 5691 5692 5693 5694 5696 5698 5701
5725 5723 5720 5719 5717 5715 5713 5712 5711 5709 5708 5706 5705 5704 5703 5702 5701 5700 5699 5698 5697 5695 5694 5693 5691 5690 5689 5687 5686 5685 5684 5683 5682 5681 5681 5681 5681 5681 5682 5684 5685 5687 5690
5723 5720 5717 5715 5713 5711 5709 5707 5706 5704 5702 5701 5699 5698 5697 5696 5695 5694 5693 5691 5690 5688 5687 5685 5684 5682 5681 5679 5677 5676 5674 5673 5672 5672 5671 5670 5670 5671 5671 5673 5675 5677 5679
5720 5717 5714 5712 5710 5707 5705 5703 5701 5699 5697 5696 5695 5693 5692 5690 5689 5688 5686 5685 5683 5681 5680 5678 5676 5674 5673 5671 5669 5667 5665 5664 5663 5662 5661 5661 5660 5660 5661 5662 5664 5666 5668
5718 5714 5711 5709 5706 5704 5702 5699 5697 5695 5693 5692 5690 5688 5686 5685 5684 5682 5681 5679 5677 5675 5673 5671 5669 5667 5665 5663 5660 5658 5657 5656 5654 5653 5652 5651 5651 5651 5652 5653 5655 5656 5658
5715 5712 5709 5706 5704 5701 5699 5696 5695 5692 5690 5688 5686 5683 5681 5680 5678 5677 5675 5673 5671 5669 5667 5665 5663 5660 5658 5656 5653 5651 5649 5648 5646 5645 5644 5643 5643 5643 5643 5643 5645 5646 5648
5714 5710 5707 5704 5701 5699 5696 5694 5692 5689 5687 5685 5682 5680 5678 5676 5674 5672 5670 5668 5666 5663 5661 5659 5657 5654 5651 5649 5646 5643 5641 5640 5639 5638 5636 5635 5634 5634 5634 5635 5635 5636 5638
5713 5709 5706 5703 5700 5698 5695 5693 5690 5687 5684 5682 5679 5677 5675 5672 5670 5667 5665 5663 5660 5658 5656 5653 5651 5648 5645 5642 5640 5637 5635 5633 5632 5630 5628 5627 5626 5626 5626 5626 5627 5627 5628
5712 5708 5706 5703 5700 5697 5694 5691 5688 5685 5682 5679 5676 5674 5671 5669 5666 5664 5661 5659 5656 5653 5651 5648 5645 5642 5639 5636 5634 5632 5629 5628 5625 5623 5621 5620 5619 5618 5618 5617 5618 5618 5619
5712 5709 5706 5702 5699 5696 5693 5690 5687 5684 5680 5677 5674 5671 5668 5666 5663 5660 5658 5655 5652 5650 5646 5643 5640 5637 5634 5631 5628 5626 5624 5622 5619 5617 5615 5613 5611 5610 5609 5609 5609 5609 5610
5711 5708 5705 5702 5698 5695 5692 5689 5685 5682 5679 5676 5672 5669 5666 5663 5660 5657 5655 5652 5649 5646 5643 5640 5636 5633 5629 5626 5623 5620 5617 5615 5613 5611 5608 5606 5604 5603 5602 5602 5601 5601 5601
Wind_Speed
28 28 27 27 27 26 26 26 26 25 24 24 24 24 24 23 23 23 23 23 22 22 23 22 22 22 23 23 23 24 24 25 26 27 28 28 28 29 29 29 30 30 30
30 30 29 28 28 27 27 27 26 25 25 25 25 25 24 24 23 24 23 23 23 23 23 24 24 23 23 24 24 24 25 26 26 27 28 29 29 29 30 30 29 30 30
29 30 30 28 28 28 27 27 26 26 26 26 25 25 24 24 23 24 24 23 23 24 24 24 24 24 24 24 24 25 25 26 26 27 28 29 29 30 31 31 31 30 30
30 30 30 29 28 28 27 26 26 26 27 26 25 25 24 23 23 23 24 24 25 25 25 26 25 25 25 24 24 25 25 26 27 28 28 29 30 30 31 31 32 32 31
30 30 30 29 28 28 28 27 27 27 26 25 25 25 25 24 24 24 24 25 26 26 26 27 26 26 26 25 25 25 26 27 27 28 29 30 30 31 32 32 32 32 32
30 30 29 29 29 28 28 28 27 27 26 25 26 25 25 25 25 25 25 26 26 26 26 27 26 26 27 27 27 27 27 27 29 29 29 29 30 31 32 33 34 34 34
29 29 29 29 28 28 27 27 27 26 26 25 25 25 25 25 25 26 26 26 26 26 26 26 26 26 27 27 27 27 28 28 29 30 30 30 31 32 33 34 35 35 35
28 28 28 27 27 26 25 24 25 25 25 25 25 25 25 25 25 25 26 26 26 26 26 26 27 27 27 28 28 28 28 28 29 31 31 32 32 33 34 34 35 36 36
27 26 26 25 25 24 25 24 24 25 24 25 25 24 23 24 25 25 25 25 26 26 26 26 26 27 27 28 29 30 30 30 30 31 32 33 34 35 35 36 36 37 38
25 25 25 24 24 24 24 24 24 23 24 24 24 24 24 24 24 24 25 26 26 26 26 26 26 27 28 29 29 30 30 31 32 33 34 34 35 36 37 38 38 38 39
23 23 24 23 23 24 24 24 24 23 24 24 24 24 24 24 25 25 24 25 26 26 27 27 28 28 29 29 30 30 31 32 33 34 34 34 35 36 37 38 38 39 40
22 22 23 23 23 24 23 23 23 23 23 23 24 24 24 24 24 24 25 26 27 27 27 28 28 29 30 30 31 31 31 32 33 34 35 35 36 37 38 38 38 39 40
22 22 22 22 23 23 23 23 23 23 23 23 23 23 24 25 24 24 25 26 26 27 28 28 29 29 30 30 31 31 32 32 32 33 35 35 36 37 38 39 39 39 40
21 22 21 21 21 22 23 23 23 23 22 22 22 22 23 24 24 24 24 25 25 25 26 28 29 30 30 30 31 31 32 32 31 32 33 34 34 35 36 37 39 38 39
21 21 21 21 21 21 22 22 22 22 22 22 22 22 23 23 24 24 24 25 26 26 26 27 28 28 29 29 30 30 31 31 31 31 32 32 33 35 36 36 37 38 38
20 21 20 20 21 21 21 20 21 21 21 22 21 20 21 22 23 23 24 25 25 26 26 26 26 27 28 29 30 29 29 30 31 31 31 32 33 34 35 36 36 37 38
20 20 19 19 19 20 20 20 20 20 20 20 20 20 21 21 22 23 23 24 24 24 23 24 24 25 27 27 27 28 28 29 30 31 31 32 32 34 35 35 36 37 37
19 19 19 19 18 18 19 19 19 19 19 18 18 19 20 20 21 22 22 23 23 23 24 24 24 24 25 25 26 27 28 29 29 30 30 31 32 32 34 35 36 37 38
19 19 19 18 18 17 17 17 18 18 17 17 17 18 19 19 20 20 20 21 22 23 23 24 24 24 25 25 26 27 27 27 27 29 29 29 29 30 32 33 34 35 37
19 18 17 16 16 16 15 15 15 16 16 17 17 18 18 17 18 19 20 21 21 22 23 23 24 23 24 24 24 25 25 26 26 26 26 27 27 28 29 31 32 33 34
17 17 17 16 16 14 13 14 15 15 15 15 15 16 16 16 17 18 19 19 20 20 21 22 22 22 23 23 23 23 23 23 24 25 24 25 25 26 27 28 30 32 33
16 17 16 15 15 14 14 14 15 15 14 14 14 14 15 15 16 17 18 19 19 19 19 20 20 21 22 22 22 22 21 21 21 22 22 23 24 24 25 26 28 29 30
16 16 15 15 15 14 14 14 15 14 14 14 14 14 15 16 17 17 17 18 18 18 19 19 20 20 20 20 20 20 20 20 21 21 21 22 23 23 24 25 26 28 30
16 16 15 14 14 14 15 15 15 15 14 14 14 15 16 16 16 16 16 17 17 18 19 19 20 19 19 19 20 20 20 21 21 22 22 21 22 23 24 25 26 27 28
16 15 15 16 15 15 16 16 15 15 15 15 15 15 16 16 16 17 17 17 17 18 18 19 19 19 20 20 21 21 21 20 20 21 22 22 22 22 23 24 25 26 27
15 15 15 16 16 15 15 15 16 16 16 16 16 15 15 15 16 17 17 18 18 18 18 18 19 19 20 21 21 21 20 20 20 20 21 21 21 21 21 22 23 25 26
Wind_Direction
295 294 293 291 288 286 285 282 280 278 279 278 276 275 273 272 272 272 272 271 270 268 266 266 268 269 267 266 266 264 264 262 259 256 256 255 253 250 248 248 248 247 247
295 292 292 290 288 287 287 283 282 280 278 279 276 277 275 273 272 272 271 269 269 269 269 269 269 270 269 268 267 266 264 263 260 257 256 256 254 252 250 250 249 247 246
294 294 293 290 288 286 284 283 282 281 280 278 275 275 276 272 270 271 270 269 268 269 270 270 270 271 270 270 268 267 265 264 261 259 257 256 255 254 252 250 250 248 247
295 295 292 291 289 286 285 283 283 282 282 279 277 274 273 270 269 269 269 270 269 268 268 269 269 270 270 269 268 268 266 265 262 259 258 257 256 255 254 251 250 248 247
294 293 292 291 289 286 284 283 283 282 280 279 279 277 274 272 270 269 269 269 269 270 270 269 268 269 269 268 268 269 267 265 263 261 260 257 255 255 254 252 250 249 246
294 294 293 290 288 286 285 284 281 281 280 279 279 277 274 274 274 272 270 270 270 271 271 269 268 268 268 269 268 268 268 266 264 262 261 258 255 255 255 253 251 250 248
295 293 293 290 287 284 282 282 281 280 277 277 277 277 276 276 276 275 272 271 272 272 272 270 268 268 269 268 269 269 267 267 264 263 261 258 256 256 256 253 251 250 249
294 295 293 290 285 283 282 282 283 281 279 278 277 275 274 275 275 274 273 271 272 272 272 271 269 268 270 269 269 268 267 267 264 262 262 260 258 257 256 254 252 251 250
293 294 293 291 286 285 283 281 283 280 279 277 276 275 274 275 275 274 273 271 272 272 272 271 270 270 269 269 269 268 266 267 265 262 263 262 260 258 255 254 253 251 249
294 293 293 290 286 285 284 284 286 284 281 277 275 275 275 276 275 276 275 273 272 272 273 272 270 271 271 271 270 270 269 268 266 264 264 263 262 258 255 254 253 251 250
298 296 294 290 287 285 284 284 285 285 283 279 276 274 273 274 275 278 278 277 274 274 273 272 271 272 272 273 273 272 270 269 266 264 264 263 261 259 257 255 253 251 249
301 297 294 290 287 286 285 284 285 287 284 282 279 276 275 274 276 278 278 279 278 277 276 274 272 273 274 275 274 273 271 270 267 264 264 265 263 260 258 256 255 252 249
304 301 298 293 288 287 287 285 285 285 285 284 282 278 276 275 278 279 280 280 279 279 277 276 274 274 277 278 276 275 273 271 268 266 265 265 263 261 260 257 255 253 250
307 304 301 298 291 288 286 286 286 285 285 285 284 281 279 277 278 280 281 281 280 280 280 277 275 276 277 277 278 277 274 271 269 268 267 266 264 261 260 258 255 253 251
310 307 303 300 295 292 290 287 286 286 285 286 286 284 282 280 279 281 283 285 283 281 281 280 280 279 280 278 277 276 275 272 271 269 268 267 265 263 259 258 256 253 252
313 309 305 302 298 296 295 294 292 289 288 288 286 285 286 284 283 282 282 285 285 285 284 283 281 280 282 280 278 278 276 274 273 270 268 267 265 263 261 257 256 253 251
318 316 312 307 303 302 299 297 297 296 293 292 290 289 290 288 284 283 283 285 287 288 288 288 287 285 285 282 281 279 278 277 275 272 272 270 267 264 261 257 255 253 251
323 320 316 313 309 306 303 302 301 302 298 295 294 293 293 292 289 287 286 287 289 290 290 290 289 289 288 286 283 281 280 279 276 275 274 272 269 265 260 258 256 253 251
325 324 320 317 314 311 309 308 306 307 303 299 298 296 295 294 295 293 291 291 291 292 293 292 292 292 290 287 285 283 282 280 277 276 276 275 270 266 262 258 256 255 252
328 327 325 322 321 319 317 314 314 311 306 303 301 300 299 297 297 296 297 296 294 295 295 295 293 292 293 293 292 289 286 283 281 280 279 277 273 270 265 260 258 257 255
333 332 330 328 326 327 325 321 316 314 311 310 309 308 308 306 302 299 298 299 299 299 301 300 298 298 297 297 297 297 294 291 286 283 282 279 275 272 268 263 260 258 257
335 335 334 334 337 338 336 332 326 325 324 322 321 319 318 316 313 308 305 306 306 306 305 305 305 302 298 297 297 297 295 293 291 286 284 280 277 274 269 265 262 259 257
341 342 343 344 344 344 341 338 337 332 326 326 325 324 324 322 320 315 311 312 312 314 314 311 308 307 303 300 300 301 299 296 295 292 289 285 278 274 271 267 265 263 261
347 347 346 345 343 343 344 342 338 336 334 334 331 327 324 322 321 320 316 316 317 318 317 315 314 312 310 307 304 304 303 298 295 294 293 289 281 275 272 268 265 264 263
347 346 347 348 349 347 346 345 347 346 344 340 337 334 330 328 326 323 321 323 322 321 321 320 317 314 311 310 307 305 303 300 297 295 294 292 288 280 274 270 267 266 264
348 348 349 349 350 349 348 349 352 351 347 345 343 341 338 335 333 331 329 329 328 326 324 322 320 318 316 315 313 310 305 302 301 298 294 292 289 283 279 276 272 269 266